,

(GMT )
Delhi

Weather History for CXDI - October, 2012

Change the Weather History Date:

Wednesday, October 17, 2012

  Actual Average Record
Temperature  
Mean Temperature 52 °F -  
Max Temperature 66 °F - - ()
Min Temperature 37 °F - - ()
Degree Days  
Heating Degree Days 14    
Growing Degree Days 2 (Base 50)    
Moisture  
Dew Point 45 °F    
Average Humidity 74    
Maximum Humidity 94    
Minimum Humidity 47    
Precipitation  
Precipitation 0.12 in - - ()
Sea Level Pressure  
Sea Level Pressure 29.78 in    
Wind  
Wind Speed 4 mph ()    
Max Wind Speed 10 mph    
Max Gust Speed 17 mph    
T = Trace of Precipitation, MM = Missing Value Source: Averaged Metar Reports

Daily Weather History Graph

Daily Weather History Graph

Search for Another Location

Airport or City:

Trip Planner

Search our weather history database for the weather conditions in past years. The results will help you decide how hot, cold, wet, or windy it might be!

Date:

Astronomy

Oct. 17, 2012 Rise Set
Actual Time 7:38 AM EDT 6:35 PM EDT
Civil Twilight 7:09 AM EDT 7:04 PM EDT
Nautical Twilight 6:36 AM EDT 7:37 PM EDT
Astronomical Twilight 6:04 AM EDT 8:09 PM EDT
Moon 10:15 AM EDT (10/17) 8:05 PM EDT (10/17)
Length of Visible Light 11h 54m
Length of Day
10h 57m
Waxing Crescent, 7% of the Moon is Illuminated
Oct 17
Waxing Crescent
Oct 21
First Quarter
Oct 29
Full
Nov 6
Last Quarter
Nov 13
New

Hourly Weather History & Observations

Time (EDT) Temp. Dew Point Humidity Pressure Visibility Wind Dir Wind Speed Gust Speed Precip Events Conditions
12:00 AM 39.6 °F 37.2 °F 91% 29.85 in - Calm Calm - N/A   Unknown
1:00 AM 38.1 °F 36.1 °F 93% 29.85 in - South 1.2 mph - N/A   Unknown
2:00 AM 40 °F 38 °F 90% 29.85 in - Calm Calm - -  
2:00 AM 39.7 °F 38.1 °F 94% 29.85 in - Calm Calm - N/A   Unknown
3:00 AM 39.7 °F 38.1 °F 94% 29.85 in - Calm Calm - N/A   Unknown
4:00 AM 42.8 °F 41.2 °F 94% 29.82 in - SSE 2.3 mph - N/A   Unknown
5:00 AM 46.2 °F 43.5 °F 90% 29.81 in - SSE 2.3 mph - 0.01 in   Unknown
6:00 AM 47.5 °F 43.7 °F 87% 29.81 in - SSE 2.3 mph - N/A   Unknown
7:00 AM 48.2 °F 44.4 °F 87% 29.82 in - South 3.5 mph - N/A   Unknown
8:00 AM 49 °F 46 °F 86% 29.82 in - SSE 4.6 mph - -  
8:00 AM 48.9 °F 46.0 °F 90% 29.82 in - SSE 4.6 mph - 0.09 in   Unknown
9:00 AM 50.5 °F 46.9 °F 87% 29.82 in - South 4.6 mph - N/A   Unknown
10:00 AM 52.0 °F 47.7 °F 85% 29.81 in - South 8.1 mph - N/A   Unknown
11:00 AM 53.4 °F 48.0 °F 82% 29.80 in - SSE 6.9 mph - N/A   Unknown
12:00 PM 56.1 °F 48.4 °F 75% 29.80 in - South 10.4 mph 17.3 mph N/A   Unknown
1:00 PM 60.4 °F 46.8 °F 61% 29.78 in - SSW 10.4 mph - N/A   Unknown
2:00 PM 64 °F 49 °F 47% 29.76 in - SSW 8.1 mph - -  
2:00 PM 63.9 °F 48.7 °F 58% 29.76 in - SSW 8.1 mph - N/A   Unknown
3:00 PM 65.1 °F 46.2 °F 50% 29.74 in - South 10.4 mph - N/A   Unknown
4:00 PM 63.9 °F 45.5 °F 51% 29.73 in - South 8.1 mph - N/A   Unknown
5:00 PM 65.8 °F 45.3 °F 47% 29.72 in - South 10.4 mph - N/A   Unknown
6:00 PM 64.4 °F 46.4 °F 52% 29.72 in - SSE 5.8 mph - N/A   Unknown
7:00 PM 60.8 °F 46.2 °F 59% 29.71 in - SSE 5.8 mph - N/A   Unknown
8:00 PM 58 °F 47 °F 59% 29.71 in - SSE 5.8 mph - -  
8:00 PM 58.5 °F 47.5 °F 67% 29.71 in - SSE 5.8 mph - N/A   Unknown
9:00 PM 58.1 °F 47.3 °F 67% 29.71 in - SSE 5.8 mph - N/A   Unknown
10:00 PM 58.3 °F 46.4 °F 65% 29.70 in - SSE 6.9 mph - N/A   Unknown
11:00 PM 59.0 °F 45.9 °F 62% 29.70 in - South 6.9 mph - N/A   Unknown